sat.trackr.live / text

‹ back to catalog

STARLINK-5794

NORAD 56006 · 2023-042W

PAYLOAD ACTIVE UNKNOWN

§ Identity

Operator
Country
US
Launch date
2023-03-24
Launch site
AFETR
Launch vehicle
Mass (kg)
RCS (m²)

Purposes: comms

External: N2YO · Heavens-Above · Gunter

§ Orbital elements

Epoch: 2026-09-20T02:35:30.132960Z

Period
94.27 min
Inclination
43.0018°
Eccentricity
0.0001377
Mean motion
15.27565188 rev/d
Perigee alt
482.1 km
Apogee alt
484.0 km
Semi-major
6,861.2 km
B*
-4.0258e-5
RAAN
49.2685°
Arg perigee
269.0278°
Mean anomaly
91.0416°
Rev number
19,251

§ Raw data

STARLINK-57941 56006U 23042W   26263.10798765 -.00001369  00000+0 -40258-4 0  99932 56006  43.0018  49.2685 0001377 269.0278  91.0416 15.27565188192518

JSON: /api/v1/satellites/56006 · /tle

For live sub-satellite position, see the globe view (requires WebGL).

§ Visibility from observer

Set your observer location to see the next 7 days of passes ≥ 10°. The values pass through the URL so the page stays shareable.

No JS? Fill the form by hand. The geolocation button needs JavaScript.